Regional Weather Roundup
Issued by NWS

Home | Current Version | Previous Version | Text Only | Print | Product List | Glossary Off
Versions: 1 2 3 4 5 6 7 8 9 10 11 12 13 14 15 16 17 18 19 20 21 22 23 24 25 26 27 28 29 30 31 32 33 34 35 36 37 38 39 40 41 42 43 44 45 46 47 48 49 50

227
ASUS43 KLMK 071402
RWRKY
KENTUCKY REGIONAL WEATHER ROUNDUP
NATIONAL WEATHER SERVICE LOUISVILLE KY
900 AM EST WED DEC 07 2016

NOTE "FAIR" INDICATES FEW OR NO CLOUDS BELOW 12,000 FEET
WITH NO SIGNIFICANT WEATHER AND/OR OBSTRUCTIONS TO VISIBILITY.

KYZ001>023-026-027-061>063-070>075-071500-
WESTERN AND SOUTH CENTRAL KENTUCKY

CITY           SKY/WX    TMP DP  RH WIND       PRES   REMARKS
PADUCAH        CLOUDY    32  24  72 NE5       30.22R WCI  27
HENDERSON      SUNNY     32  23  69 NW3       30.22S
OWENSBORO      MOSUNNY   33  25  72 N8        30.22S WCI  26
HOPKINSVILLE   MOSUNNY   35  32  89 N10       30.18R WCI  27
BOWLING GREEN  MOSUNNY   36  33  89 MISG      30.19R FOG
GLASGOW        NOT AVBL
$$

KYZ024-025-028>034-038-045-046-053-071500-
NORTH CENTRAL KENTUCKY

CITY           SKY/WX    TMP DP  RH WIND       PRES   REMARKS
LOUISVILLE/SDF PTSUNNY   36  27  69 NW5       30.20R WCI  32
LOUISVILLE/LOU MOSUNNY   35  27  72 NW5       30.21R WCI  31
FORT KNOX      MOSUNNY   33  30  87 NW6       30.17S WCI  28
$$

KYZ035>037-039>044-047>052-055>060-089>105-071500-
NORTHEAST KENTUCKY

CITY           SKY/WX    TMP DP  RH WIND       PRES   REMARKS
LEXINGTON      SUNNY     34  28  79 N5        30.17R WCI  30
COVINGTON      MOSUNNY   31  24  75 W5        30.16R WCI  26
FRANKFORT      SUNNY     33  27  78 NW3       30.18R
$$

KYZ054-064>069-076>088-106>120-071500-
SOUTHEAST KENTUCKY

CITY           SKY/WX    TMP DP  RH WIND       PRES   REMARKS
JACKSON        SUNNY     34  28  79 CALM      30.13R
LONDON         SUNNY     36  31  82 NE6       30.13R WCI  31
SOMERSET       SUNNY     34  32  93 NE5       30.16R WCI  30
MIDDLESBORO    MOSUNNY   39  36  90 CALM      30.12F
MONTICELLO     SUNNY     36  31  82 NW9       30.17R WCI  29
$$





USA.gov is the U.S. government's official web portal to all federal, state and local government web resources and services.